This demonstration page uses our WeatherBlox Daily Observations layout. Learn more.

Hourly Observations for February 7, 2017

Temp ( °F °C ) Dew Point ( °F °C ) Humidity (%) Winds ( mph kmh ) Pressure ( in mb ) Visibility ( mi km ) Precip ( " mm )
12:11 am 00:11 Cloudy with Mist and Fog 41 5 40 4.4 96 96 Calm 29.56 1001 2 3.21868 0 0
12:38 am 00:38 Cloudy with Mist and Fog 43 6 41 5 93 93 W 7 11 29.53 1000 4 6.43736 0 0
12:54 am 00:54 Cloudy with Mist and Fog 42 5.6 41 5 96 96 WNW 8 13 29.51 999 5 8.0467 0 0
1:14 am 01:14 Cloudy with Mist and Fog 42 5.6 40 4.4 92 92 WNW 12 19 29.53 1000 4 6.43736 0 0
1:54 am 01:54 Cloudy with Mist and Fog 40 4.4 39 3.9 97 97 WNW 8 13 29.52 1000 3 4.82802 0 0
2:54 am 02:54 Cloudy with Mist and Fog 38 3.3 37 2.8 97 97 NNW 13 20 29.54 1000 5 8.0467 0 0
3:54 am 03:54 Cloudy with Mist and Fog 36 2.2 34 1.1 93 93 N 17 28 29.56 1001 5 8.0467 0 0
4:08 am 04:08 Cloudy 34 1 30 -1 87 87 NNW 10 17 29.62 1003 7 11.26538 0 0
4:54 am 04:54 Cloudy 32 0 29 -1.7 88 88 NNW 15 24 29.61 1003 8 12.87472 0 0
5:54 am 05:54 Cloudy 31 -0.6 28 -2.2 89 89 NW 13 20 29.65 1004 7 11.26538 0 0
6:45 am 06:45 Cloudy 31 -0.6 27 -2.8 85 85 NNW 21 33 29.71 1006 8 12.87472 0 0
6:54 am 06:54 Cloudy 31 -0.6 27 -2.8 85 85 NNW 17 28 29.69 1005 7 11.26538 0 0
7:54 am 07:54 Cloudy with Mist and Fog 30 -1.1 26 -3.3 85 85 NNW 16 26 29.73 1007 5 8.0467 0 0
8:26 am 08:26 Cloudy with Haze 30 -1 25 -4 80 80 N 17 28 29.8 1009 6 9.65604 0 0
8:54 am 08:54 Cloudy 29 -1.7 24 -4.4 82 82 N 23 37 29.75 1008 7 11.26538 0 0
9:54 am 09:54 Cloudy 28 -2.2 23 -5 81 81 NNW 18 30 29.8 1009 8 12.87472 0 0
10:54 am 10:54 Cloudy 27 -2.8 21 -6.1 78 78 NNW 18 30 29.82 1010 10 16.0934 0 0
11:40 am 11:40 Cloudy 28 -2 19 -7 69 69 NNW 20 31 29.88 1012 10 16.0934 0 0
11:54 am 11:54 Cloudy 27 -2.8 20 -6.7 75 75 NNW 18 30 29.87 1011 10 16.0934 0 0
12:45 pm 12:45 Cloudy 28 -2.2 19 -7.2 69 69 NW 18 30 29.88 1012 10 16.0934 0 0
12:54 pm 12:54 Cloudy 29 -1.7 19 -7.2 66 66 NNW 20 31 29.85 1011 10 16.0934 0 0
1:54 pm 13:54 Cloudy 30 -1.1 18 -7.8 61 61 NNW 18 30 29.84 1011 10 16.0934 0 0
2:54 pm 14:54 Cloudy 30 -1.1 18 -7.8 61 61 NNW 17 28 29.85 1011 10 16.0934 0 0
3:54 pm 15:54 Cloudy 29 -1.7 17 -8.3 61 61 NNW 21 33 29.85 1011 10 16.0934 0 0
4:20 pm 16:20 Partly Cloudy 28 -2 18 -8 64 64 N 17 28 29.88 1012 10 16.0934 0 0
4:54 pm 16:54 Sunny 28 -2.2 16 -8.9 60 60 NNW 18 30 29.89 1012 10 16.0934 0 0
5:54 pm 17:54 Clear 26 -3.3 14 -10 60 60 N 15 24 29.92 1013 10 16.0934 0 0
6:54 pm 18:54 Mostly Clear 25 -3.9 13 -10.6 60 60 N 14 22 29.94 1014 10 16.0934 0 0
7:54 pm 19:54 Mostly Cloudy 24 -4.4 13 -10.6 62 62 NNE 16 26 29.89 1012 10 16.0934 0 0
8:54 pm 20:54 Partly Cloudy 23 -5 13 -10.6 65 65 N 17 28 29.92 1013 10 16.0934 0 0
9:54 pm 21:54 Cloudy 22 -5.6 12 -11.1 66 66 N 16 26 29.96 1015 10 16.0934 0 0
10:54 pm 22:54 Cloudy 22 -5.6 12 -11.1 66 66 N 12 19 29.96 1015 10 16.0934 0 0
11:54 pm 23:54 Cloudy 22 -5.6 12 -11.1 66 66 NNE 16 26 29.97 1015 10 16.0934 0 0

Powered by AerisWeather